RH
8 10 8 6 4 7 10 10 9 7 17 13 14 21 23 27 26 25 30 32 26 33 47 59 58 63 51 31 17 15 13 14 16 17 17 24 50 60 59 58 54 51 44 42
12 8 7 8 11 14 14 13 12 12 12 16 22 19 11 20 26 25 29 24 24 33 41 54 63 67 54 52 33 32 25 16 16 16 17 19 41 65 65 62 55 55 52 41
10 10 6 7 10 16 19 15 8 7 9 14 13 18 22 19 23 25 28 26 33 38 47 52 56 61 57 55 43 43 32 40 26 21 17 18 37 59 55 55 59 61 61 44
15 12 10 7 10 11 14 9 8 8 17 18 15 9 10 20 21 24 27 29 39 45 48 51 55 48 46 51 55 45 31 31 56 47 21 20 39 62 69 68 67 63 61 52
14 12 11 15 10 13 12 15 14 21 21 21 18 18 13 7 18 21 24 32 36 52 52 52 51 58 58 61 57 52 36 50 60 47 33 28 52 69 70 64 57 50 49 41
17 16 15 10 10 14 15 22 21 20 20 21 19 17 14 12 9 13 21 26 33 46 59 61 48 44 50 54 51 52 50 56 65 65 54 53 61 71 76 82 74 61 44 28
30 24 23 21 16 19 22 22 22 21 23 18 18 18 16 13 13 12 14 24 27 33 38 42 39 38 40 49 50 55 58 59 63 68 73 73 75 81 76 77 76 60 45 27
39 32 30 24 20 18 18 21 22 20 23 17 18 18 18 15 13 13 15 15 15 16 28 34 34 38 46 47 49 54 57 63 69 73 78 82 82 82 78 76 79 72 55 25
46 34 30 27 24 25 26 24 20 21 24 20 20 22 24 22 15 12 12 12 14 15 17 16 15 18 34 47 57 56 58 67 75 79 78 77 76 84 88 87 83 79 68 30
65 46 44 44 27 25 24 22 24 24 27 23 26 30 34 25 20 18 17 15 13 18 20 14 23 18 25 43 55 53 59 66 72 75 82 83 86 85 85 89 87 77 76 36
70 67 53 51 44 34 28 24 22 22 22 19 25 36 45 35 26 24 20 18 17 18 18 24 35 34 35 48 53 64 66 69 72 71 77 80 88 96 88 88 83 82 78 41
72 68 58 62 56 50 37 30 26 24 33 26 21 57 56 54 48 39 30 22 18 17 16 16 19 32 48 53 63 60 58 67 76 75 84 91 96 96 92 91 78 91 81 40
89 74 68 63 65 64 56 57 51 42 30 36 25 61 61 54 48 45 40 34 28 22 20 20 19 19 18 20 30 37 44 51 62 76 79 93 98 99 100 94 85 89 82 43
92 88 86 78 83 75 68 66 61 58 65 65 55 73 57 52 47 44 42 40 37 32 26 24 22 21 21 22 26 28 26 30 43 64 76 79 94 99 95 93 94 94 76 47
42 48 64 69 71 69 66 65 63 59 65 62 73 65 58 53 49 45 43 42 39 38 35 29 24 21 21 21 20 24 23 28 42 56 62 64 65 79 91 93 86 88 72 52
32 33 29 26 29 32 39 42 44 45 46 52 70 63 59 53 46 44 41 40 38 38 37 35 33 28 22 22 23 24 29 27 25 33 57 68 70 85 94 82 91 75 70 57
50 50 62 46 22 21 24 20 21 22 22 26 31 38 34 31 28 30 31 30 29 31 32 35 36 35 32 26 22 26 28 30 37 41 42 41 59 98 100 97 91 75 62 57
51 59 64 65 62 59 32 22 22 26 26 24 21 22 23 20 22 22 18 14 15 15 15 20 26 32 34 32 34 40 42 39 35 38 48 51 46 98 100 97 82 84 78 71
65 70 81 84 64 45 33 37 39 35 64 55 38 36 30 29 33 34 24 22 17 14 10 9 12 18 27 31 35 39 44 47 55 61 66 66 64 100 100 100 99 99 97 77
73 77 84 86 80 75 60 57 53 53 80 59 73 63 73 74 74 65 57 41 26 18 13 10 10 9 10 19 30 34 40 42 57 60 64 75 79 98 100 100 100 100 100 94
62 79 96 88 86 76 54 77 80 80 73 74 75 76 58 57 60 58 56 51 44 34 27 23 19 14 11 9 10 17 30 38 45 66 61 72 83 95 100 99 100 99 99 100
58 79 93 86 86 81 50 48 72 83 86 84 82 90 92 76 64 63 63 58 54 51 40 28 23 34 32 28 17 10 10 22 36 51 76 72 80 88 87 98 99 99 98 100
78 61 69 66 72 46 58 59 66 76 80 89 93 89 89 88 82 76 72 74 75 74 71 63 55 62 67 62 59 39 14 12 16 36 47 84 79 83 91 82 92 99 99 98
73 75 73 71 64 60 62 67 68 56 54 54 53 66 66 56 43 44 54 62 63 66 68 70 61 60 67 70 72 67 45 25 21 25 52 65 94 94 86 91 94 98 99 93
82 83 77 75 78 84 76 64 51 37 38 36 39 42 37 36 36 34 37 50 51 49 53 56 61 65 58 49 52 74 74 81 61 39 49 75 91 99 100 99 100 100 99 93
95 90 89 80 77 75 54 40 34 42 41 41 48 47 44 41 33 28 26 24 21 26 32 40 44 48 50 45 40 39 66 75 88 84 63 67 72 74 99 100 100 100 99 98
Wind_Speed
30 32 37 31 24 21 10 14 17 16 13 23 30 24 22 24 31 32 32 28 27 25 22 28 26 20 24 24 24 23 24 23 22 22 20 19 17 15 13 12 12 11 11 9
32 39 33 24 23 23 20 17 17 15 17 22 18 26 32 31 29 32 32 31 31 30 30 32 28 23 18 18 31 24 23 22 23 23 23 22 21 19 16 15 14 13 13 12
38 23 30 29 27 23 21 20 18 15 15 22 21 25 28 33 33 30 37 37 35 31 27 27 29 25 24 28 28 25 24 20 23 25 26 26 26 22 18 15 15 16 16 14
30 33 11 28 30 24 23 16 12 13 10 8 15 8 31 30 31 32 34 40 34 29 23 24 25 23 21 23 26 25 28 23 21 23 27 27 25 21 18 19 20 20 19 16
22 23 35 18 30 24 21 12 13 12 11 9 13 6 12 23 37 37 33 36 32 28 24 23 24 27 21 23 25 28 26 23 24 23 24 26 24 23 22 21 21 19 19 18
23 13 15 27 22 25 19 16 13 13 11 7 17 13 7 14 25 35 32 33 31 31 30 27 24 22 21 23 22 24 24 22 25 26 26 24 24 25 25 24 22 21 20 19
19 21 13 12 26 26 21 20 5 6 6 5 13 12 11 7 14 20 28 34 34 33 34 33 30 28 27 25 22 27 26 24 24 28 31 30 27 24 24 25 23 22 22 21
21 13 26 18 21 25 33 30 10 7 6 7 10 7 4 3 19 15 21 27 33 35 35 35 34 33 33 32 30 26 27 29 30 32 31 32 29 27 25 26 26 25 24 22
11 16 12 29 26 20 27 33 21 7 5 6 7 9 9 8 8 15 24 21 22 30 34 39 39 37 35 33 33 32 27 30 29 33 36 32 28 28 27 27 26 28 26 22
5 5 14 17 29 28 22 27 20 15 8 6 4 7 7 13 13 12 12 17 26 24 30 36 36 40 39 36 34 33 32 31 27 29 30 35 33 28 26 25 27 29 27 24
5 5 10 15 12 22 23 23 21 19 14 10 7 5 10 11 12 12 12 11 13 16 20 23 34 39 38 36 36 36 32 33 32 29 28 29 31 30 25 25 27 27 29 25
2 4 3 8 6 12 19 25 28 20 14 15 14 5 15 13 13 12 12 14 13 12 12 14 16 21 30 35 34 35 34 34 34 35 34 29 28 24 23 24 26 26 27 23
6 3 1 4 6 7 7 13 16 16 18 16 16 8 23 19 16 14 13 14 16 16 16 16 17 17 19 23 29 33 36 36 37 37 32 33 31 27 27 26 25 24 25 25
7 7 3 2 1 4 6 9 8 9 5 7 7 20 28 23 19 18 14 12 12 15 18 17 17 16 17 18 22 27 32 34 35 37 38 33 33 32 29 24 23 23 27 25
4 8 13 12 11 11 11 9 7 6 7 6 12 18 26 24 19 16 14 13 10 9 10 14 17 20 18 17 19 20 27 31 34 36 38 35 29 31 29 25 21 23 24 25
11 8 13 20 16 18 21 19 17 15 12 13 20 15 18 15 14 15 16 15 15 14 14 14 14 15 20 20 18 20 21 27 30 31 34 38 39 37 32 30 31 23 25 25
10 4 3 6 16 17 17 22 24 21 21 18 19 22 22 20 20 20 20 20 21 21 21 23 20 17 17 20 24 22 23 24 27 28 30 33 35 23 25 28 31 32 27 24
12 8 5 4 2 3 9 16 17 14 21 24 24 22 22 23 23 23 24 25 24 21 22 23 26 27 24 23 22 24 22 25 27 28 26 28 30 24 30 29 29 30 29 28
8 10 5 4 10 12 10 13 15 17 15 18 22 25 26 27 25 27 27 27 27 26 25 26 28 29 32 32 29 26 22 18 22 24 23 23 27 28 31 28 28 30 29 30
13 12 14 10 5 6 5 12 16 17 12 21 21 21 23 22 21 25 26 27 28 28 28 28 31 32 32 34 35 33 26 24 21 21 20 20 25 28 29 29 29 29 32 33
13 14 20 19 11 9 16 9 9 13 10 18 16 17 20 21 24 27 25 25 26 28 30 32 34 36 36 36 36 34 32 30 26 28 26 23 23 31 31 31 24 27 26 32
16 10 14 18 15 15 15 18 17 14 17 14 15 15 17 19 21 23 23 24 26 29 31 33 34 36 38 39 39 38 34 32 32 28 27 30 31 33 32 33 35 28 22 26
26 25 16 15 12 13 9 22 19 15 13 14 18 17 18 18 21 22 23 22 22 25 26 29 32 35 34 37 37 38 40 37 33 31 27 29 37 40 40 43 43 43 38 31
32 26 27 22 31 34 28 22 23 22 26 29 30 28 28 28 27 28 29 29 27 25 25 28 31 30 28 26 30 36 39 43 40 34 29 29 34 39 42 44 46 46 39 38
35 31 37 41 31 29 33 38 41 35 32 32 32 31 30 32 34 34 36 37 37 36 33 29 30 32 28 22 19 29 33 35 43 40 32 29 30 37 38 40 39 40 38 38
36 37 40 42 29 34 43 39 38 30 30 31 29 31 34 35 38 37 39 38 39 41 41 40 38 37 37 34 23 22 29 34 30 36 39 35 34 35 38 38 40 39 45 40
Wind_Direction
213 215 219 221 227 231 217 225 237 236 213 217 226 221 204 219 227 226 224 221 232 239 235 229 219 199 202 215 218 210 213 215 217 220 220 221 223 226 234 237 242 249 255 262
217 225 229 227 229 233 236 233 233 230 215 220 216 224 224 224 223 222 219 226 232 239 237 229 219 206 200 235 229 242 222 227 226 224 223 222 226 231 235 240 244 252 259 268
218 230 226 223 224 223 228 231 231 228 219 223 231 235 211 214 218 223 218 225 234 244 249 234 217 210 211 214 230 230 242 247 239 231 224 221 223 229 240 248 251 254 257 263
227 218 195 216 222 218 220 221 215 209 212 219 206 243 230 211 209 220 225 227 232 240 238 218 208 217 224 238 238 226 237 233 233 233 227 227 226 232 240 243 246 251 259 267
211 219 219 216 216 210 221 214 199 214 231 234 210 232 240 224 222 215 220 229 231 234 227 217 216 230 236 238 240 238 232 232 230 230 230 229 231 235 239 245 252 252 266 275
219 213 210 226 216 211 212 188 194 211 216 231 215 212 244 229 231 226 219 227 230 229 231 234 230 235 234 239 236 237 236 234 237 235 235 234 236 241 245 251 256 261 262 269
210 216 193 198 201 200 189 176 152 178 193 225 188 200 236 224 220 220 219 221 225 231 230 230 234 235 237 230 228 231 240 242 240 242 242 239 241 250 254 253 258 266 265 268
205 216 219 196 188 194 197 187 175 184 185 183 171 198 161 115 204 199 210 222 228 226 226 231 234 236 235 235 232 231 234 240 240 243 244 243 246 252 255 256 257 262 264 267
192 212 210 210 207 195 190 204 206 124 128 158 180 148 149 153 182 206 214 216 226 230 228 225 226 227 229 233 236 234 235 245 250 249 245 245 252 258 260 262 263 256 259 263
166 177 174 186 207 213 210 203 204 211 177 182 179 171 168 158 166 169 192 213 222 224 231 232 230 224 224 225 234 237 243 245 243 243 249 249 251 258 265 266 263 246 251 256
180 173 173 166 180 194 197 203 208 210 213 204 162 188 168 165 172 174 180 187 196 208 218 227 230 229 225 226 225 231 236 240 243 245 251 256 253 259 267 265 264 246 245 249
26 210 172 166 159 171 187 201 206 211 196 210 201 158 177 170 162 176 195 207 218 225 231 232 229 230 231 230 228 231 236 237 240 243 250 257 257 256 262 263 262 262 243 246
11 1 206 139 192 185 182 179 192 205 209 201 204 174 186 183 173 173 185 198 208 214 218 221 233 238 238 236 235 238 242 242 240 239 246 251 253 253 258 254 262 261 245 245
316 310 326 333 123 198 188 182 181 185 171 167 196 165 182 186 187 190 194 194 199 204 210 218 224 226 229 239 244 242 240 239 240 236 233 243 256 256 257 249 246 242 236 243
276 271 267 277 277 274 263 236 233 204 170 171 165 173 181 193 202 207 211 213 218 228 227 225 232 238 242 244 248 250 246 241 238 233 231 230 245 256 256 250 251 248 242 242
277 267 267 266 267 277 274 263 255 250 234 207 180 210 212 223 237 241 243 242 241 242 248 253 244 235 238 244 254 253 246 243 241 237 231 226 227 228 233 237 250 260 246 244
278 242 238 264 269 274 275 265 259 255 250 240 230 231 241 247 246 246 250 255 258 258 258 257 257 256 247 245 248 252 251 248 243 239 238 234 225 222 237 233 233 231 233 236
252 234 236 268 279 247 251 248 251 243 240 240 238 237 236 238 239 241 246 254 257 256 256 258 259 259 263 257 256 251 249 251 253 252 248 242 226 217 229 224 231 235 237 235
233 219 225 222 221 286 256 238 236 233 237 235 230 234 233 233 233 237 237 240 245 251 256 258 256 253 250 253 257 259 260 260 262 256 247 246 216 208 226 225 234 238 247 237
220 229 222 204 226 230 260 218 222 235 239 239 239 229 217 219 226 235 239 241 246 250 251 253 257 258 252 248 247 255 258 260 251 237 231 231 228 207 230 228 235 231 234 231
214 216 212 219 233 257 239 225 233 212 228 240 241 248 239 226 232 238 241 245 249 250 252 255 259 260 259 256 252 256 253 253 260 249 236 225 221 207 218 234 240 249 246 247
233 225 216 224 233 248 234 228 224 225 240 252 259 257 256 254 244 245 248 250 251 254 256 258 259 263 264 264 261 257 256 251 252 255 249 235 224 217 219 231 236 232 245 236
247 232 222 212 226 253 247 221 230 231 236 239 251 254 263 266 269 265 261 258 261 263 263 264 259 259 265 270 272 267 255 252 250 252 256 251 237 231 222 223 232 240 242 251
251 243 241 247 257 255 246 229 223 248 267 268 268 261 267 273 279 280 274 272 268 257 257 260 262 261 264 272 275 274 270 261 254 249 245 246 246 238 233 233 237 242 245 235
251 253 255 261 260 256 252 256 258 266 257 258 266 267 267 272 274 278 279 274 271 273 269 262 263 263 270 273 279 274 269 274 272 262 249 240 239 243 240 238 237 239 233 230
254 251 242 248 264 264 269 279 275 266 261 257 258 257 262 263 268 271 275 280 280 279 277 275 270 266 269 276 272 277 272 270 277 278 268 249 239 241 240 236 239 240 229 220